Regional Weather Roundup
Issued by NWS Cleveland, OH

Home | Current Version | Previous Version | Text Only | Print | Product List | Glossary On
Versions: 1 2 3 4 5 6 7 8 9 10 11 12 13 14 15 16 17 18 19 20 21 22 23 24 25 26 27 28 29 30 31 32 33 34 35 36 37 38 39 40 41 42 43 44 45 46 47 48 49 50
000
ASUS41 KCLE 041910
RWRCLE
OHIO REGIONAL WEATHER ROUNDUP
NATIONAL WEATHER SERVICE CLEVELAND, OH
300 PM EDT WED MAY 04 2016

NOTE: "FAIR" INDICATES FEW OR NO CLOUDS BELOW 12,000 FEET WITH NO
SIGNIFICANT WEATHER AND/OR OBSTRUCTIONS TO VISIBILITY.

OHZ001>008-015>018-024>027-034-035-043-044-042000-
   NORTHWEST OHIO

CITY           SKY/WX    TMP DP  RH WIND       PRES   REMARKS
DEFIANCE       CLOUDY    50  42  74 W9        29.62R
FINDLAY        LGT RAIN  51  45  79 W13       29.60R
TOLEDO EXPRESS CLOUDY    52  46  80 W13       29.58R
TOLEDO EXEC    CLOUDY    55  47  74 SW15G28   29.58S
LIMA           LGT RAIN  49  45  86 W15       29.62R
$$

OHZ009>014-019>023-028>033-038-089-042000-
   NORTHEAST OHIO

CITY           SKY/WX    TMP DP  RH WIND       PRES   REMARKS
CLE-HOPKINS    CLOUDY    62  45  53 E9        29.62F
CLE-LAKEFRONT  CLOUDY    56  47  71 NW8       29.60F
CUY CO. ARPT   PTSUNNY   57  43  58 W17       29.62S
LORAIN-ELYRIA  LGT RAIN  54  46  74 W7        29.62R
ASHTABULA      PTSUNNY   63  36  36 CALM      29.63F
AKRON-CANTON   PTSUNNY   59  39  47 SW14      29.62S
WOOSTER        LGT RAIN  53  44  71 W8        29.63R
MANSFIELD      LGT RAIN  53  47  79 SE9       29.61F
YOUNGSTOWN     PTSUNNY   60  41  49 S8        29.63F
$$

OHZ042-051>053-060>062-070>072-077>081-042000-
  SOUTHWEST OHIO

CITY           SKY/WX    TMP DP  RH WIND       PRES   REMARKS
CINC-COVINGTON CLOUDY    55  50  83 SW7       29.67S
CINC-LUNKEN    CLOUDY    54  50  86 SW9       29.68S
HAMILTON       CLOUDY    52  48  86 SW6       29.68S
DAYTON         CLOUDY    53  45  74 NW14      29.65S
WRIGHT-PAT AFB LGT RAIN  52  51  98 SW6       29.64S
DAYTON GENERAL LGT RAIN  52  46  80 NW7       29.64F
WILMINGTON     CLOUDY    54  47  77 SW15      29.64F
$$

OHZ036-037-039>041-045>050-054>059-063>069-073>076-082>088-042000-
  CENTRAL AND SOUTHEAST OHIO

CITY           SKY/WX    TMP DP  RH WIND       PRES   REMARKS
COLUMBUS       CLOUDY    57  43  59 SW18G26   29.62S
OSU AIRPORT    CLOUDY    56  44  64 SW15G23   29.62R
BOLTON FIELD   CLOUDY    55  46  71 W14G21    29.64S
RICKENBACK AFB CLOUDY    56  46  69 W13G23    29.64R
NEWARK         LGT RAIN  56  48  74 S6        29.62F
MARION         CLOUDY    56  44  64 W15       29.61S
LANCASTER      CLOUDY    57  44  62 SW15G21   29.65R
ZANESVILLE     PTSUNNY   65  44  46 S7        29.62F
NEW PHILLY     PTSUNNY   61  41  47 NW7       29.62S
$$



USA.gov is the U.S. government's official web portal to all federal, state and local government web resources and services.